"Pseudo-MPEC" for P10OT6i

Created 2019 Jun 20 19:07:20 UT using Find_Orb

Click here for an explanation of pseudo-MPECs

 
 Astrometry: 
     P10OT6i  C2019 06 09QUlpaDHn4:5PY#%%KM0,si2[h]`Astrometryd9Gonmredacted;F51
     P10OT6i  C2019 06 09e0lg$(m0;shAR9nbEg+WIMnc7b0-0XL@J:y*vl;7@]2Lvclick'5F51
     P10OT6i  C2019 06 09uH@,Kn!5_=ylMWsn'gG2cm'T3dg::HO5pIAvqveW9dIgvv5#c\iLF51
     P10OT6i  C2019 06 09OJ[=4HWNp`c@/_p'[[^uabv^wy!YCNbm/%\160[vNU,3L3naKiafF51
     P10OT6i KC2019 06 11+]$(7;ZT$'=]c(tNcpVrViDC7,n[G5f+here9IB?VMv7DZ!L.OiXH21
     P10OT6i KC2019 06 11+b5N,X?l':pgy/juO.Q+h!?CMML=+1%t_e-%2hYL^KmjFvyQS*sTH21
     P10OT6i KC2019 06 11I='Pix5U#for0:C=sU+-'i-,6x,3w7f[0@^M!explanationhq#LH21

Station data:
(F51) Pan-STARRS 1, Haleakala  (N20.707235 W156.255910)  US/Hawaii.
   Observers N. Primak, A. Schultz, S. Watters, J. Thiel, T. Goggia. Measurer
   PS1 Science Consortium. 1.8-m Ritchey-Chrétien + CCD.
(H21) Astronomical Research Observatory, Westfield  (N39.483057 W87.968270)
   US/Illinois. 0.76-m f/3.0 astrograph + CCD.

Orbital elements:  P10OT6i
   Perihelion 2017 Oct 23.906333 +/- 513 TT = 21:45:07 (JD 2458050.406333)
Epoch 2019 Jun 11.0 TT = JDT 2458645.5   Earth MOID: 0.3445   Ma: 0.0778
M 170.22914094 +/- 130              (J2000 ecliptic)          AutoNEOCP
n   0.28605436 +/- 0.241            Peri.  295.63731 +/- 70
a   2.28123659 +/- 1.28             Node   199.17809 +/- 52
e   0.4716864 +/- 0.224             Incl.   20.31471 +/- 11
P   3.45                   H 16.6   G  0.15   U 11.8  SR
q 1.20520812 +/- 2.12    Q 3.35726506 +/- 64.1
From 7 observations 2019 June 9-11 (43.5 hr); mean residual 0".12
Residuals in arcseconds: 
190609 F51  .03+  .11-    190609 F51  .06+  .09-    190611 H21  .22+  .06-    
190609 F51  .04-  .08+    190611 H21  .29-  .03+    
190609 F51  .05-  .12+    190611 H21  .07+  .03+    

Ephemerides (geocentric):
Date (UTC) HH   RA              Dec         delta   r     elong  mag " sig PA
---- -- -- --  -------------   -----------  ------ ------ -----  --- ---- ---
2019 06 20 19  21 34 46.999   +09 45 35.75  2.7688 3.3536 116.9 22.3  544 159
2019 06 20 20  21 34 46.327   +09 45 45.36  2.7683 3.3536 117.0 22.3  548 159
2019 06 20 21  21 34 45.653   +09 45 54.96  2.7679 3.3536 117.0 22.3  553 159
2019 06 20 22  21 34 44.978   +09 46 04.55  2.7674 3.3536 117.0 22.3  558 159
2019 06 20 23  21 34 44.300   +09 46 14.12  2.7669 3.3536 117.1 22.3  562 159
2019 06 21 00  21 34 43.620   +09 46 23.68  2.7664 3.3536 117.1 22.3  567 159
2019 06 21 01  21 34 42.938   +09 46 33.22  2.7659 3.3537 117.1 22.3  572 159
2019 06 21 02  21 34 42.255   +09 46 42.75  2.7654 3.3537 117.2 22.3  577 159
2019 06 21 03  21 34 41.568   +09 46 52.27  2.7649 3.3537 117.2 22.3  582 159
2019 06 21 04  21 34 40.880   +09 47 01.77  2.7645 3.3537 117.2 22.3  586 159
2019 06 21 05  21 34 40.190   +09 47 11.26  2.7640 3.3537 117.3 22.3  591 159
2019 06 21 06  21 34 39.498   +09 47 20.73  2.7635 3.3537 117.3 22.3  596 159
2019 06 21 07  21 34 38.804   +09 47 30.19  2.7630 3.3537 117.4 22.3  601 159
2019 06 21 08  21 34 38.107   +09 47 39.64  2.7625 3.3537 117.4 22.3  606 159
2019 06 21 09  21 34 37.409   +09 47 49.07  2.7620 3.3538 117.4 22.3  611 159
2019 06 21 10  21 34 36.708   +09 47 58.49  2.7616 3.3538 117.5 22.3  616 159
2019 06 21 11  21 34 36.006   +09 48 07.89  2.7611 3.3538 117.5 22.3  621 159
2019 06 21 12  21 34 35.301   +09 48 17.28  2.7606 3.3538 117.5 22.3  626 159
2019 06 21 13  21 34 34.594   +09 48 26.65  2.7601 3.3538 117.6 22.3  631 159
2019 06 21 14  21 34 33.886   +09 48 36.01  2.7596 3.3538 117.6 22.3  636 159
2019 06 21 15  21 34 33.175   +09 48 45.36  2.7591 3.3538 117.7 22.3  641 159
2019 06 21 16  21 34 32.462   +09 48 54.69  2.7587 3.3538 117.7 22.3  646 159
2019 06 21 17  21 34 31.747   +09 49 04.01  2.7582 3.3539 117.7 22.3  651 159
2019 06 21 18  21 34 31.029   +09 49 13.31  2.7577 3.3539 117.8 22.3  656 159
2019 06 21 19  21 34 30.310   +09 49 22.60  2.7572 3.3539 117.8 22.3  661 159
2019 06 21 20  21 34 29.589   +09 49 31.88  2.7567 3.3539 117.8 22.3  666 159
2019 06 21 21  21 34 28.866   +09 49 41.14  2.7562 3.3539 117.9 22.3  672 159
2019 06 21 22  21 34 28.140   +09 49 50.39  2.7558 3.3539 117.9 22.3  677 159
2019 06 21 23  21 34 27.413   +09 49 59.62  2.7553 3.3539 117.9 22.3  682 159
2019 06 22 00  21 34 26.683   +09 50 08.84  2.7548 3.3539 118.0 22.3  687 159
2019 06 22 01  21 34 25.952   +09 50 18.04  2.7543 3.3540 118.0 22.3  693 159
2019 06 22 02  21 34 25.218   +09 50 27.23  2.7538 3.3540 118.1 22.3  698 159
2019 06 22 03  21 34 24.482   +09 50 36.40  2.7534 3.3540 118.1 22.3  703 159
2019 06 22 04  21 34 23.744   +09 50 45.57  2.7529 3.3540 118.1 22.3  709 159
2019 06 22 05  21 34 23.004   +09 50 54.71  2.7524 3.3540 118.2 22.3  714 159
2019 06 22 06  21 34 22.262   +09 51 03.84  2.7519 3.3540 118.2 22.3  719 159
2019 06 22 07  21 34 21.518   +09 51 12.96  2.7514 3.3540 118.2 22.3  725 159
2019 06 22 08  21 34 20.772   +09 51 22.06  2.7510 3.3540 118.3 22.3  730 159
2019 06 22 09  21 34 20.024   +09 51 31.15  2.7505 3.3540 118.3 22.3  736 159
2019 06 22 10  21 34 19.273   +09 51 40.22  2.7500 3.3541 118.4 22.3  741 159
2019 06 22 11  21 34 18.521   +09 51 49.28  2.7495 3.3541 118.4 22.3  747 159
2019 06 22 12  21 34 17.766   +09 51 58.33  2.7490 3.3541 118.4 22.3  752 159
2019 06 22 13  21 34 17.010   +09 52 07.36  2.7486 3.3541 118.5 22.3  758 159
2019 06 22 14  21 34 16.251   +09 52 16.37  2.7481 3.3541 118.5 22.3  763 159
2019 06 22 15  21 34 15.491   +09 52 25.38  2.7476 3.3541 118.5 22.3  769 159
2019 06 22 16  21 34 14.728   +09 52 34.36  2.7471 3.3541 118.6 22.3  775 159
2019 06 22 17  21 34 13.963   +09 52 43.33  2.7467 3.3541 118.6 22.3  780 159
2019 06 22 18  21 34 13.196   +09 52 52.29  2.7462 3.3542 118.6 22.3  786 159